Regional Weather Roundup
Issued by NWS Cleveland, OH

Home | Current Version | Previous Version | Graphics & Text | Print | Product List | Glossary On
Versions: 1 2 3 4 5 6 7 8 9 10 11 12 13 14 15 16 17 18 19 20 21 22 23 24 25 26 27 28 29 30 31 32 33 34 35 36 37 38 39 40 41 42 43 44 45 46 47 48 49 50
000
ASUS41 KCLE 210510
RWRCLE
OHIO REGIONAL WEATHER ROUNDUP
NATIONAL WEATHER SERVICE CLEVELAND, OH
100 AM EDT TUE OCT 21 2014

NOTE: "FAIR" INDICATES FEW OR NO CLOUDS BELOW 12,000 FEET WITH NO
SIGNIFICANT WEATHER AND/OR OBSTRUCTIONS TO VISIBILITY.

OHZ001>008-015>018-024>027-034-035-043-044-210600-
   NORTHWEST OHIO

CITY           SKY/WX    TMP DP  RH WIND       PRES   REMARKS
DEFIANCE       CLOUDY    53  46  77 NW7       29.90S
FINDLAY        CLOUDY    51  48  89 W9        29.87S
TOLEDO EXPRESS CLOUDY    52  48  86 NW6       29.87F
TOLEDO EXEC    PTCLDY    52  47  83 NW9       29.88S
LIMA           CLOUDY    51  48  89 NW8       29.89S
$$

OHZ009>014-019>023-028>033-038-089-210600-
   NORTHEAST OHIO

CITY           SKY/WX    TMP DP  RH WIND       PRES   REMARKS
CLE-HOPKINS    CLOUDY    52  51  97 W7        29.86F FOG
CLE-LAKEFRONT  CLOUDY    55  52  89 W12       29.83S
CUY CO. ARPT   NOT AVBL
LORAIN-ELYRIA  CLOUDY    52  51  97 W6        29.85F FOG
ASHTABULA      LGT RAIN  51  50  96 SW6       29.83S FOG
AKRON-CANTON   CLOUDY    51  48  89 W5        29.85S FOG
WOOSTER        CLOUDY    52  50  93 W5        29.86S FOG
MANSFIELD      CLOUDY    52  51  97 W3        29.86F FOG
YOUNGSTOWN     LGT RAIN  50  48  93 SW7       29.83F
$$

OHZ042-051>053-060>062-070>072-077>081-210600-
  SOUTHWEST OHIO

CITY           SKY/WX    TMP DP  RH WIND       PRES   REMARKS
CINC-COVINGTON PTCLDY    54  47  77 NW7       29.91S
CINC-LUNKEN    PTCLDY    49  48  97 CALM      29.92R
HAMILTON       LGT RAIN  56  51  84 NW7       29.92S
DAYTON         CLOUDY    54  49  83 NW8       29.92R
WRIGHT-PAT AFB MOCLDY    53  50  91 NW10      29.90R
DAYTON GENERAL CLOUDY    54  50  86 NW6       29.90R
WILMINGTON     CLOUDY    53  50  89 W7        29.89F
$$

OHZ036-037-039>041-045>050-054>059-063>069-073>076-082>088-210600-
  CENTRAL AND SOUTHEAST OHIO

CITY           SKY/WX    TMP DP  RH WIND       PRES   REMARKS
COLUMBUS       PTCLDY    49  47  93 CALM      29.88S
OSU AIRPORT    FOG       46  45  96 W5        29.88F VSB 1/4
BOLTON FIELD   PTCLDY    47  47  98 W3        29.89S FOG
RICKENBACK AFB PTCLDY    46  46  97 CALM      29.88S
NEWARK         MOCLDY    50  47  89 CALM      29.88S
MARION         CLEAR     49  47  93 W5        29.87S FOG
LANCASTER      CLOUDY    47  45  93 CALM      29.89R
ZANESVILLE     CLOUDY    49  47  93 SW3       29.88S
NEW PHILLY     CLOUDY    51  49  92 CALM      29.87F
$$



USA.gov is the U.S. government's official web portal to all federal, state and local government web resources and services.